EW1578 Weather Reports


Display with metric or nautical units.
time (UTC)temp
F
wind
direction
speed
MPH
gust
MPH
rain 1hr
in
rain 24hr
in
rain mn
in
humidity
%
barometer
mb
20260831231538 75 242 0.0 0.0 0.00 0.00 0.00 84 1016.3
20260831230035 76 242 0.0 0.0 0.00 0.00 0.00 82 1016.4
20260831224533 76 242 0.0 0.0 0.00 0.00 0.00 80 1016.6
20260831223033 76 242 0.0 0.0 0.00 0.00 0.00 81 1016.5
20260831221535 76 242 0.0 0.0 0.00 0.00 0.00 81 1016.7
20260831220027 77 242 0.0 0.0 0.00 0.00 0.00 79 1016.8
20260831214625 76 248 0.0 0.0 0.00 0.00 0.00 82 1017.0
20260831213025 75 248 0.0 0.0 0.00 0.00 0.00 84 1017.1
20260831211554 75 246 0.0 2.0 0.00 0.00 0.00 84 1017.2
20260831210053 75 209 0.0 8.0 0.00 0.00 0.00 83 1017.2
20260831204549 76 246 0.0 5.0 0.00 0.00 0.00 82 1017.2
20260831203048 77 252 0.0 0.0 0.00 0.00 0.00 79 1017.2
20260831201547 76 252 0.0 0.0 0.00 0.00 0.00 80 1017.4
20260831200100 76 254 0.0 1.0 0.00 0.00 0.00 78 1017.5
20260831194608 76 253 0.0 4.0 0.00 0.00 0.00 79 1017.7
20260831193042 76 311 0.0 1.0 0.00 0.00 0.00 79 1017.8
20260831191540 77 60 0.0 0.0 0.00 0.00 0.00 76 1018.0
20260831190051 77 60 0.0 0.0 0.00 0.00 0.00 78 1018.1
20260831184537 77 60 0.0 0.0 0.00 0.00 0.00 77 1018.3
20260831183038 77 60 0.0 0.0 0.00 0.00 0.00 77 1018.3
20260831181537 76 60 0.0 0.0 0.00 0.00 0.00 76 1018.3
20260831180036 76 60 0.0 0.0 0.00 0.00 0.00 79 1018.3
20260831174535 77 60 0.0 0.0 0.00 0.00 0.00 77 1018.5
20260831173013 77 60 0.0 0.0 0.00 0.00 0.00 76 1018.6
20260831171512 77 60 0.0 0.0 0.00 0.00 0.00 75 1018.3
20260831170008 78 60 0.0 0.0 0.00 0.00 0.00 73 1018.6
20260831164501 78 60 0.0 0.0 0.00 0.00 0.00 76 1018.6
20260831163102 78 60 0.0 0.0 0.00 0.00 0.00 76 1018.6
20260831161558 77 60 0.0 0.0 0.00 0.00 0.00 73 1018.6
20260831160027 77 60 0.0 0.0 0.00 0.00 0.00 76 1018.6
20260831154531 76 347 0.0 0.0 0.00 0.00 0.00 77 1018.6
20260831153052 76 327 0.0 0.0 0.00 0.00 0.00 77 1018.8
20260831151547 75 327 0.0 0.0 0.00 0.00 0.00 80 1019.0
20260831150044 74 327 0.0 0.0 0.00 0.00 0.00 78 1019.0
20260831144545 74 326 0.0 0.0 0.00 0.00 0.00 80 1019.1
20260831143043 74 326 0.0 0.0 0.00 0.00 0.00 79 1019.1
20260831141542 74 325 0.0 0.0 0.00 0.00 0.00 81 1019.1
20260831140047 73 325 0.0 0.0 0.00 0.00 0.00 81 1019.1
20260831134539 73 326 0.0 0.0 0.00 0.00 0.00 80 1019.0
20260831133034 73 20 0.0 0.0 0.00 0.00 0.00 83 1018.8
20260831131530 72 80 0.0 0.0 0.00 0.00 0.00 83 1018.9
20260831130025 72 77 0.0 0.0 0.00 0.00 0.00 84 1018.9
20260831124524 72 76 0.0 2.0 0.00 0.00 0.00 86 1018.8
20260831123030 70 144 0.0 0.0 0.00 0.00 0.00 89 1018.9
20260831121517 69 194 0.0 0.0 0.00 0.00 0.00 91 1018.9
20260831120012 69 194 0.0 0.0 0.00 0.00 0.00 92 1018.9
20260831114511 68 194 0.0 0.0 0.00 0.00 0.00 93 1018.9
20260831113008 68 194 0.0 0.0 0.00 0.00 0.00 93 1018.5
20260831111507 68 194 0.0 0.0 0.00 0.00 0.00 93 1018.6
20260831110006 67 194 0.0 0.0 0.00 0.00 0.00 92 1018.3
20260831104502 67 194 0.0 0.0 0.00 0.00 0.00 92 1018.2
20260831103000 67 194 0.0 0.0 0.00 0.00 0.00 92 1017.9
20260831101600 67 194 0.0 0.0 0.00 0.00 0.00 92 1018.2
20260831100029 67 194 0.0 0.0 0.00 0.00 0.00 91 1017.9
20260831094532 68 194 0.0 0.0 0.00 0.00 0.00 91 1017.9
20260831093058 68 194 0.0 0.0 0.00 0.00 0.00 91 1017.9
20260831091555 68 194 0.0 0.0 0.00 0.00 0.00 91 1017.7
20260831090053 68 194 0.0 0.0 0.00 0.00 0.00 91 1017.6
20260831084601 68 194 0.0 0.0 0.00 0.00 0.00 90 1017.6
20260831083052 68 194 0.0 0.0 0.00 0.00 0.00 90 1017.6
20260831081552 69 194 0.0 0.0 0.00 0.00 0.00 90 1017.5
20260831080056 69 194 0.0 0.0 0.00 0.00 0.00 89 1017.6
20260831074549 69 194 0.0 0.0 0.00 0.00 0.00 89 1017.8
20260831073052 70 194 0.0 0.0 0.00 0.00 0.00 88 1017.7
20260831071547 70 194 0.0 0.0 0.00 0.00 0.00 87 1017.6
20260831070048 71 194 0.0 0.0 0.00 0.00 0.00 87 1017.7
20260831064544 71 194 0.0 0.0 0.00 0.00 0.00 86 1017.6
20260831063043 71 194 0.0 0.0 0.00 0.00 0.00 87 1017.5
20260831061542 72 194 0.0 0.0 0.00 0.00 0.00 86 1017.7
20260831060033 72 194 0.0 0.0 0.00 0.00 0.00 86 1017.7
20260831054533 72 194 0.0 0.0 0.00 0.00 0.00 87 1017.6
20260831053032 72 194 0.0 0.0 0.00 0.00 0.00 85 1017.3
20260831051540 72 194 0.0 0.0 0.00 0.00 0.00 85 1017.3
20260831050030 72 194 0.0 0.0 0.00 0.00 0.00 84 1017.3
20260831044530 73 291 0.0 0.0 0.00 0.00 0.00 84 1017.8
20260831043029 73 291 0.0 0.0 0.00 0.00 0.00 83 1017.7
20260831041541 73 291 0.0 0.0 0.00 0.00 0.00 84 1017.6
20260831040032 73 290 0.0 0.0 0.00 0.00 0.00 84 1018.0
20260831034531 73 290 0.0 0.0 0.00 0.00 0.00 85 1017.9
20260831033031 73 291 0.0 0.0 0.00 0.00 0.00 84 1017.9
20260831031531 73 292 0.0 0.0 0.00 0.00 0.00 86 1017.9
20260831030038 73 293 0.0 0.0 0.00 0.00 0.00 87 1017.9
20260831024539 73 293 0.0 0.0 0.00 0.00 0.00 89 1017.9
20260831023036 73 293 0.0 0.0 0.00 0.00 0.00 89 1017.9
20260831021539 74 293 0.0 0.0 0.00 0.00 0.00 90 1018.0
20260831020032 74 293 0.0 0.0 0.00 0.00 0.00 89 1017.9
20260831014542 74 293 0.0 0.0 0.00 0.00 0.00 89 1017.8
20260831013036 74 293 0.0 0.0 0.00 0.00 0.00 89 1017.9
20260831011535 74 293 0.0 0.0 0.00 0.00 0.00 89 1017.9
20260831010030 75 293 0.0 0.0 0.00 0.00 0.00 89 1017.7
20260831004529 75 293 0.0 0.0 0.00 0.00 0.00 88 1017.4
20260831003028 75 293 0.0 0.0 0.00 0.00 0.00 87 1017.1
20260831001527 76 293 0.0 0.0 0.00 0.00 0.00 85 1016.9
20260831000037 76 293 0.0 0.0 0.00 0.00 0.00 85 1016.9
20260830234556 77 293 0.0 0.0 0.00 0.00 0.00 83 1016.9
20260830233105 77 293 0.0 0.0 0.00 0.00 0.00 83 1016.8